Volver al catálogo

ECHO 1 DEB

METAL OBJ

ActivoLEO
NORAD 53·DEBRIS·🇺🇸 United States

Lanzado Aug 12, 1960 desde Cape Canaveral Space Force Station

Loading…

Próximos Pases (próximas 24 horas)

TLE

ActualizadoSource: Space-Track

Época: Sep 14, 2026, 05:10 UTC

1 00053U 60009E   26257.21566642 -.00000088  00000-0 -29809-4 0  9997
2 00053  47.2770  67.6989 0098023 339.5538  20.1341 12.17412847946276

Sigue ECHO 1 DEB en tiempo real con AllMySat

Download on the App Store